G4SEJ Weather Reports


time (UTC)temp
F
wind
direction
speed
knots
gust
knots
rain 1hr
in
rain 24hr
in
rain mn
in
humidity
%
barometer
mb
20260507232412 46 138 0.0 0.0 0.00 0.00 0.00 94 1015.7
20260507231407 46 138 0.0 0.0 0.00 0.00 0.00 93 1015.8
20260507230908 46 138 0.0 0.0 0.00 0.00 0.00 93 1015.8
20260507230405 46 139 0.0 0.0 0.00 0.00 0.00 93 1015.8
20260507225904 46 139 0.0 0.0 0.00 0.00 0.00 92 1015.8
20260507225402 46 139 0.0 0.0 0.00 0.00 0.00 92 1015.7
20260507224902 46 139 0.0 0.0 0.00 0.00 0.00 92 1015.7
20260507224356 46 105 0.0 0.0 0.00 0.00 0.00 92 1015.8
20260507223353 47 105 0.0 0.0 0.00 0.00 0.00 92 1015.8
20260507222851 47 105 0.0 0.0 0.00 0.00 0.00 92 1015.8
20260507221843 48 105 0.0 0.0 0.00 0.00 0.00 91 1015.9
20260507221342 48 105 0.0 0.0 0.00 0.00 0.00 91 1015.9
20260507220841 48 105 0.0 0.0 0.00 0.00 0.00 91 1015.9
20260507220341 48 105 0.0 0.0 0.00 0.00 0.00 90 1016.0
20260507215840 49 105 0.0 0.9 0.00 0.00 0.00 90 1015.9
20260507215340 49 105 0.0 0.9 0.00 0.00 0.00 90 1015.9
20260507214834 49 105 0.0 0.9 0.00 0.00 0.00 90 1016.0
20260507213831 49 105 0.0 0.9 0.00 0.00 0.00 90 1016.0
20260507213329 49 105 0.0 0.9 0.00 0.00 0.00 90 1016.0
20260507212828 49 100 0.0 0.9 0.00 0.00 0.00 90 1016.0
20260507212323 50 89 0.0 0.9 0.00 0.00 0.00 89 1016.0
20260507211824 50 89 0.0 0.9 0.00 0.00 0.00 89 1015.9
20260507211324 50 89 0.0 0.9 0.00 0.00 0.00 89 1015.9
20260507210824 50 89 0.0 1.7 0.00 0.00 0.00 89 1015.8
20260507210322 50 92 0.0 1.7 0.00 0.00 0.00 89 1015.9
20260507205822 50 101 0.0 1.7 0.00 0.00 0.00 89 1015.8
20260507205320 50 101 0.0 1.7 0.00 0.00 0.00 89 1015.8
20260507204819 50 101 0.0 0.9 0.00 0.00 0.00 89 1015.7
20260507204321 50 101 0.0 1.7 0.00 0.00 0.00 89 1015.7
20260507203818 50 94 0.9 2.6 0.00 0.00 0.00 88 1015.7
20260507203316 50 96 0.9 3.5 0.00 0.00 0.00 88 1015.6
20260507202816 50 91 0.9 3.5 0.00 0.00 0.00 88 1015.6
20260507202309 51 98 0.0 2.6 0.00 0.00 0.00 88 1015.6
20260507201810 51 94 0.0 2.6 0.00 0.00 0.00 88 1015.6
20260507201311 51 117 0.9 2.6 0.00 0.00 0.00 87 1015.6
20260507200311 51 126 0.9 1.7 0.00 0.00 0.00 87 1015.6
20260507195306 51 102 0.9 3.5 0.00 0.00 0.00 87 1015.4
20260507194806 51 102 0.9 3.5 0.00 0.00 0.00 87 1015.4
20260507194305 51 127 0.9 3.5 0.00 0.00 0.00 87 1015.4
20260507193805 51 103 0.0 2.6 0.00 0.00 0.00 86 1015.3
20260507192802 51 109 0.0 2.6 0.00 0.00 0.00 86 1015.2
20260507192256 51 122 0.9 2.6 0.00 0.00 0.00 86 1015.3
20260507191806 52 150 0.9 2.6 0.00 0.00 0.00 86 1015.3
20260507191252 52 119 0.0 2.6 0.00 0.00 0.00 85 1015.3
20260507190750 52 144 0.9 3.5 0.00 0.00 0.00 85 1015.3
20260507190250 52 120 0.9 3.5 0.00 0.00 0.00 85 1015.2
20260507185746 52 115 0.9 4.3 0.00 0.00 0.00 85 1015.2
20260507185245 52 108 0.9 4.3 0.00 0.00 0.00 84 1015.2
20260507184745 52 103 0.9 5.2 0.00 0.00 0.00 84 1015.1
20260507184247 52 108 0.9 5.2 0.00 0.00 0.00 84 1015.1
20260507183744 53 116 1.7 5.2 0.00 0.00 0.00 83 1015.2
20260507183244 53 108 1.7 5.2 0.00 0.00 0.00 83 1015.2
20260507182237 53 128 1.7 6.1 0.00 0.00 0.00 82 1015.2
20260507181737 53 106 1.7 6.1 0.00 0.00 0.00 82 1015.2
20260507181238 53 95 1.7 5.2 0.00 0.00 0.00 82 1015.2
20260507180738 53 79 1.7 6.1 0.00 0.00 0.00 82 1015.1
20260507180238 53 113 0.9 6.1 0.00 0.00 0.00 81 1015.1
20260507175734 53 99 0.9 6.1 0.00 0.00 0.00 81 1015.1
20260507175234 53 127 1.7 6.1 0.00 0.00 0.00 81 1015.0
20260507174231 53 124 0.9 4.3 0.00 0.00 0.00 81 1015.1
20260507173732 53 109 0.9 4.3 0.00 0.00 0.00 81 1015.0
20260507173231 53 121 0.9 4.3 0.00 0.00 0.00 80 1015.0
20260507172726 53 101 0.9 4.3 0.00 0.00 0.00 80 1015.0
20260507171726 54 111 0.9 4.3 0.00 0.00 0.00 80 1015.0
20260507171226 54 144 0.9 2.6 0.00 0.00 0.00 80 1015.1
20260507170726 54 127 0.9 2.6 0.00 0.00 0.00 80 1015.1
20260507170224 54 110 0.9 4.3 0.00 0.00 0.00 80 1015.0
20260507165722 54 131 1.7 4.3 0.00 0.00 0.00 80 1015.1
20260507165219 54 110 1.7 5.2 0.00 0.00 0.00 80 1015.1
20260507164719 54 132 1.7 5.2 0.00 0.00 0.00 80 1015.1
20260507164220 54 100 1.7 4.3 0.00 0.00 0.00 80 1015.2
20260507163719 54 44 1.7 7.0 0.00 0.00 0.00 80 1015.2
20260507163217 54 98 1.7 7.0 0.00 0.00 0.00 80 1015.2
20260507162710 54 105 1.7 5.2 0.00 0.00 0.00 80 1015.2
20260507162209 54 120 1.7 6.1 0.00 0.00 0.00 81 1015.2
20260507161708 54 58 1.7 7.0 0.00 0.00 0.00 81 1015.2
20260507161208 54 113 1.7 7.0 0.00 0.00 0.00 81 1015.2
20260507160710 54 141 1.7 5.2 0.00 0.00 0.00 81 1015.2
20260507155210 54 71 2.6 7.8 0.00 0.00 0.00 81 1015.2
20260507154710 54 113 2.6 8.7 0.00 0.00 0.00 81 1015.2
20260507154208 54 49 2.6 8.7 0.00 0.00 0.00 81 1015.2
20260507153710 54 77 2.6 7.0 0.00 0.00 0.00 81 1015.2
20260507153210 54 81 2.6 8.7 0.00 0.00 0.00 81 1015.3
20260507152704 54 47 3.5 8.7 0.00 0.00 0.00 81 1015.2
20260507152205 54 60 3.5 7.8 0.00 0.00 0.00 80 1015.2
20260507151704 54 75 3.5 9.6 0.00 0.00 0.00 81 1015.2
20260507151205 54 53 4.3 9.6 0.00 0.00 0.00 80 1015.2
20260507150206 54 78 3.5 8.7 0.00 0.00 0.00 80 1015.2
20260507145701 54 32 4.3 9.6 0.00 0.00 0.00 80 1015.2
20260507145201 54 55 4.3 9.6 0.00 0.00 0.00 80 1015.2
20260507144201 54 41 3.5 7.8 0.00 0.00 0.00 80 1015.2
20260507143702 54 86 4.3 8.7 0.00 0.00 0.00 80 1015.3
20260507143202 54 40 5.2 9.6 0.00 0.00 0.00 80 1015.3
20260507142656 54 56 4.3 9.6 0.00 0.00 0.00 80 1015.3
20260507142158 54 70 4.3 8.7 0.00 0.00 0.00 80 1015.4
20260507141656 54 91 4.3 8.7 0.00 0.00 0.00 80 1015.4
20260507141157 54 56 4.3 8.7 0.00 0.00 0.00 79 1015.5
20260507140658 54 48 3.5 8.7 0.00 0.00 0.00 79 1015.4
20260507140158 54 51 3.5 7.8 0.00 0.00 0.00 79 1015.4
20260507135653 54 72 4.3 9.6 0.00 0.00 0.00 79 1015.5
20260507135152 54 110 5.2 10.4 0.00 0.00 0.00 79 1015.5
20260507134153 54 91 4.3 8.7 0.00 0.00 0.00 79 1015.4
20260507133653 54 67 5.2 9.6 0.00 0.00 0.00 78 1015.4
20260507133154 54 39 5.2 9.6 0.00 0.00 0.00 77 1015.4
20260507132152 54 51 5.2 10.4 0.00 0.00 0.00 77 1015.4
20260507131652 55 53 4.3 9.6 0.00 0.00 0.00 77 1015.4
20260507131153 55 79 4.3 10.4 0.00 0.00 0.00 77 1015.4
20260507130648 55 63 4.3 10.4 0.00 0.00 0.00 76 1015.5
20260507130149 54 102 5.2 10.4 0.00 0.00 0.00 76 1015.4
20260507125648 54 57 5.2 10.4 0.00 0.00 0.00 76 1015.5
20260507124149 54 63 4.3 9.6 0.00 0.00 0.00 78 1015.5
20260507123649 54 62 4.3 9.6 0.00 0.00 0.00 76 1015.5
20260507123145 54 117 3.5 9.6 0.00 0.00 0.00 77 1015.6
20260507122643 55 66 3.5 10.4 0.00 0.00 0.00 77 1015.5
20260507122143 54 39 3.5 10.4 0.00 0.00 0.00 76 1015.6
20260507121655 54 103 4.3 11.3 0.00 0.00 0.00 77 1015.5
20260507121143 54 99 6.1 11.3 0.00 0.00 0.00 78 1015.5
20260507120140 54 153 4.3 9.6 0.00 0.00 0.00 77 1015.6
20260507115638 54 94 3.5 9.6 0.00 0.00 0.00 77 1015.5
20260507115136 54 49 4.3 9.6 0.00 0.00 0.00 76 1015.6
20260507114636 54 53 4.3 7.8 0.00 0.00 0.00 76 1015.6
20260507114136 54 48 4.3 8.7 0.00 0.00 0.00 76 1015.6
20260507113637 54 47 4.3 8.7 0.00 0.00 0.00 75 1015.6
20260507113136 54 52 4.3 8.7 0.00 0.00 0.00 75 1015.6
20260507112637 54 67 4.3 8.7 0.00 0.00 0.00 75 1015.6
20260507111633 54 53 5.2 8.7 0.00 0.00 0.00 75 1015.6
20260507111133 54 60 4.3 8.7 0.00 0.00 0.00 74 1015.6
20260507110633 54 47 4.3 8.7 0.00 0.00 0.00 74 1015.7
20260507110133 54 42 5.2 11.3 0.00 0.00 0.00 73 1015.6
20260507105633 54 53 5.2 11.3 0.00 0.00 0.00 73 1015.6
20260507105133 55 37 4.3 10.4 0.00 0.00 0.00 73 1015.7
20260507104634 55 101 6.1 10.4 0.00 0.00 0.00 73 1015.8
20260507104127 55 48 6.1 9.6 0.00 0.00 0.00 73 1015.7
20260507103127 55 65 4.3 10.4 0.00 0.00 0.00 71 1015.8
20260507102127 56 30 3.5 9.6 0.00 0.00 0.00 72 1015.8
20260507101627 55 23 3.5 9.6 0.00 0.00 0.00 72 1015.8
20260507101121 55 65 4.3 9.6 0.00 0.00 0.00 72 1015.8
20260507100621 55 40 4.3 9.6 0.00 0.00 0.00 73 1015.7
20260507100122 55 75 3.5 9.6 0.00 0.00 0.00 73 1015.8
20260507095622 54 81 4.3 1.7 0.00 0.00 0.00 75 1015.6
20260507094304 54 45 4.3 8.7 0.00 0.00 0.00 75 1015.7
20260507093803 54 60 3.5 10.4 0.00 0.00 0.00 75 1015.7
20260507093300 54 44 4.3 10.4 0.00 0.00 0.00 74 1015.7
20260507092257 54 43 3.5 7.8 0.00 0.00 0.00 74 1015.7
20260507091757 54 53 3.5 7.8 0.00 0.00 0.00 71 1015.6
20260507091257 53 151 3.5 7.0 0.00 0.00 0.00 70 1015.6
20260507090756 54 54 3.5 7.0 0.00 0.00 0.00 72 1015.5
20260507090255 54 44 3.5 7.0 0.00 0.00 0.00 73 1015.5
20260507085756 54 64 3.5 7.0 0.00 0.00 0.00 74 1015.5
20260507085254 53 65 3.5 7.0 0.00 0.00 0.00 73 1015.4
20260507084755 54 69 1.7 7.0 0.00 0.00 0.00 73 1015.4
20260507084256 53 69 1.7 6.1 0.00 0.00 0.00 75 1015.4
20260507083755 53 121 2.6 6.1 0.00 0.00 0.00 74 1015.4
20260507083255 53 56 3.5 6.1 0.00 0.00 0.00 75 1015.4
20260507082748 53 46 3.5 7.0 0.00 0.00 0.00 76 1015.4
20260507082249 53 68 3.5 7.0 0.00 0.00 0.00 76 1015.4
20260507081749 53 48 2.6 5.2 0.00 0.00 0.00 76 1015.4
20260507081246 53 54 3.5 6.1 0.00 0.00 0.00 76 1015.4
20260507080745 52 81 3.5 7.0 0.00 0.00 0.00 76 1015.4
20260507075739 53 73 2.6 6.1 0.00 0.00 0.00 76 1015.3
20260507075239 52 63 1.7 6.1 0.00 0.00 0.00 77 1015.3
20260507074739 53 70 1.7 5.2 0.00 0.00 0.00 77 1015.3
20260507074239 52 56 2.6 7.0 0.00 0.00 0.00 77 1015.2
20260507073239 52 50 2.6 5.2 0.00 0.00 0.00 76 1015.2
20260507072733 52 8 1.7 5.2 0.00 0.00 0.00 77 1015.2
20260507071734 52 52 1.7 3.5 0.00 0.00 0.00 78 1015.1
20260507071233 52 46 1.7 4.3 0.00 0.00 0.00 77 1015.0
20260507070733 52 65 2.6 5.2 0.00 0.00 0.00 78 1015.0
20260507064731 51 86 0.9 4.3 0.00 0.00 0.00 80 1014.9
20260507064231 51 65 1.7 4.3 0.00 0.00 0.00 80 1014.9
20260507063731 51 72 1.7 4.3 0.00 0.00 0.00 80 1014.9
20260507063231 51 42 2.6 6.1 0.00 0.00 0.00 81 1015.0
20260507062729 51 57 2.6 6.1 0.00 0.00 0.00 82 1014.9
20260507062222 51 79 0.9 2.6 0.00 0.00 0.00 84 1014.9
20260507061723 51 353 0.0 1.7 0.00 0.00 0.00 87 1014.9
20260507061221 51 105 0.0 0.0 0.00 0.00 0.00 88 1014.8
20260507060222 50 105 0.0 0.0 0.00 0.00 0.00 89 1014.6
20260507055722 50 105 0.0 0.0 0.00 0.00 0.00 89 1014.6
20260507055223 49 105 0.0 0.0 0.00 0.00 0.00 90 1014.6
20260507054217 49 105 0.0 0.0 0.00 0.00 0.00 90 1014.5
20260507053719 49 105 0.0 0.0 0.00 0.00 0.00 90 1014.5
20260507052219 48 105 0.0 0.0 0.00 0.00 0.00 90 1014.5
20260507051726 48 105 0.0 0.0 0.00 0.00 0.00 90 1014.5
20260507050715 48 105 0.0 0.0 0.00 0.00 0.00 90 1014.5
20260507045713 48 105 0.0 0.0 0.00 0.00 0.00 90 1014.4
20260507045215 47 105 0.0 0.0 0.00 0.00 0.00 90 1014.3
20260507044714 47 105 0.0 0.0 0.00 0.00 0.00 90 1014.4
20260507044213 47 105 0.0 0.0 0.00 0.00 0.00 90 1014.3
20260507042900 47 105 0.0 0.0 0.00 0.00 0.00 89 1014.2
20260507042400 47 105 0.0 0.0 0.00 0.00 0.00 89 1014.1
20260507041900 47 105 0.0 0.0 0.00 0.00 0.00 89 1014.1
20260507041401 47 105 0.0 0.0 0.00 0.00 0.00 89 1014.1
20260507040356 47 105 0.0 1.7 0.00 0.00 0.00 89 1014.1
20260507035856 47 105 0.0 1.7 0.00 0.00 0.00 89 1014.1
20260507035355 47 105 0.0 0.0 0.00 0.00 0.00 89 1014.1
20260507034855 47 106 0.0 0.9 0.00 0.00 0.00 89 1014.1
20260507033849 47 82 0.0 0.0 0.00 0.00 0.00 88 1014.0
20260507033348 47 82 0.0 0.0 0.00 0.00 0.00 88 1014.0
20260507032846 47 82 0.0 0.0 0.00 0.00 0.00 89 1014.1
20260507032345 47 82 0.0 0.0 0.00 0.00 0.00 89 1014.0
20260507031843 47 82 0.0 0.0 0.00 0.00 0.00 88 1014.0
20260507031339 47 82 0.0 0.0 0.00 0.00 0.00 88 1014.0
20260507030835 47 82 0.0 0.0 0.00 0.00 0.00 88 1014.0
20260507030348 47 82 0.0 0.0 0.00 0.00 0.00 87 1014.0
20260507025833 47 82 0.0 0.0 0.00 0.00 0.00 87 1013.9
20260507024825 47 82 0.0 0.0 0.00 0.00 0.00 87 1013.9
20260507024323 48 82 0.0 0.0 0.00 0.00 0.00 86 1013.8
20260507023323 48 82 0.0 0.0 0.00 0.00 0.00 86 1013.8
20260507022824 48 82 0.0 0.0 0.00 0.00 0.00 86 1013.8
20260507022324 49 82 0.0 0.0 0.00 0.00 0.00 85 1013.8
20260507021831 49 82 0.0 0.0 0.00 0.00 0.00 85 1013.8
20260507021317 49 82 0.0 0.0 0.00 0.00 0.00 85 1013.8
20260507020817 49 82 0.0 0.0 0.00 0.00 0.00 84 1013.8
20260507020318 49 82 0.0 0.0 0.00 0.00 0.00 84 1013.8
20260507014825 50 82 0.0 2.6 0.00 0.01 0.00 84 1013.7
20260507014322 50 47 0.9 2.6 0.00 0.01 0.00 84 1013.7
20260507013315 50 51 0.9 2.6 0.00 0.01 0.00 84 1013.8
20260507012817 50 67 0.0 2.6 0.00 0.01 0.00 83 1013.7
20260507012317 50 53 0.9 3.5 0.00 0.01 0.00 83 1013.8
20260507011817 50 79 0.9 3.5 0.00 0.01 0.00 83 1013.8
20260507011314 50 53 0.9 3.5 0.00 0.01 0.00 83 1013.8
20260507010814 50 72 1.7 3.5 0.00 0.01 0.00 83 1013.8
20260507010310 50 55 1.7 4.3 0.00 0.01 0.00 83 1013.7
20260507005810 50 60 1.7 4.3 0.00 0.01 0.00 83 1013.7
20260507005308 50 45 1.7 4.3 0.00 0.01 0.00 83 1013.7
20260507004809 50 54 2.6 4.3 0.00 0.01 0.00 83 1013.7
20260507004308 50 54 1.7 4.3 0.00 0.01 0.00 83 1013.7
20260507003807 50 63 1.7 4.3 0.00 0.01 0.00 83 1013.6
20260507003302 50 53 0.9 3.5 0.00 0.01 0.00 83 1013.6
20260507002801 50 75 0.9 3.5 0.00 0.01 0.00 83 1013.6
20260507002258 50 54 1.7 4.3 0.00 0.01 0.00 83 1013.7
20260507001757 50 46 2.6 6.1 0.00 0.01 0.00 83 1013.7
20260507001256 50 59 2.6 6.1 0.00 0.01 0.00 83 1013.7
20260507000753 50 49 2.6 5.2 0.00 0.01 0.00 83 1013.7
20260507000252 50 70 2.6 5.2 0.00 0.01 0.00 83 1013.8
20260506235252 50 63 2.6 6.1 0.00 0.01 0.00 83 1013.8
20260506234752 50 56 2.6 4.3 0.00 0.01 0.00 83 1013.8
20260506234252 50 58 2.6 4.3 0.00 0.01 0.00 83 1013.7
20260506233751 50 71 1.7 5.2 0.00 0.01 0.00 83 1013.7
20260506233247 50 58 0.9 4.3 0.00 0.01 0.00 83 1013.6